contact: severine.martini@mio.osupytheas.fr, dominique.lefevre@mio.osupytheas.fr
Project:EMSO Ligure-ouest http://www.emso-fr.org/EMSO-France
Sensor Microcat Sea-Bird SBE37 SMP,  Serial 57510 
DOI : "https://doi.org/10.17882/97948" 
Title:EMSO Ligure Ouest : Data Bathybot capteur Microcat - deploiement 2023-04-28
Datetime,Profondeur,Latitude,Longitude,Temperature,Conductivite,Pression,Salinite
time,m,degree_north,degree_east,degree_C,S/m,db,PSU 
2024-01-28T00:00:49,2420,42.8014,5.9826,13.3010,4.59951,2453.537,38.4879
2024-01-28T00:03:49,2420,42.8014,5.9826,13.3013,4.60079,2453.559,38.4996
2024-01-28T00:06:49,2420,42.8014,5.9826,13.3001,4.59980,2453.551,38.4915
2024-01-28T00:09:49,2420,42.8014,5.9826,13.2997,4.59933,2453.514,38.4875
2024-01-28T00:12:49,2420,42.8014,5.9826,13.3025,4.60042,2453.559,38.4950
2024-01-28T00:15:49,2420,42.8014,5.9826,13.2989,4.59969,2453.514,38.4917
2024-01-28T00:18:49,2420,42.8014,5.9826,13.2985,4.59932,2453.514,38.4886
2024-01-28T00:21:49,2420,42.8014,5.9826,13.2998,4.59915,2453.522,38.4857
2024-01-28T00:24:49,2420,42.8014,5.9826,13.2991,4.59913,2453.559,38.4862
2024-01-28T00:27:49,2420,42.8014,5.9826,13.2988,4.59913,2453.537,38.4865
2024-01-28T00:30:49,2420,42.8014,5.9826,13.2992,4.59922,2453.537,38.4870
2024-01-28T00:33:49,2420,42.8014,5.9826,13.2990,4.59926,2453.537,38.4875
2024-01-28T00:36:49,2420,42.8014,5.9826,13.2990,4.59916,2453.528,38.4866
2024-01-28T00:39:49,2420,42.8014,5.9826,13.2988,4.59914,2453.559,38.4866
2024-01-28T00:42:49,2420,42.8014,5.9826,13.2991,4.59918,2453.537,38.4866
2024-01-28T00:45:49,2420,42.8014,5.9826,13.2989,4.59916,2453.537,38.4867
2024-01-28T00:48:49,2420,42.8014,5.9826,13.2991,4.59916,2453.514,38.4865
2024-01-28T00:51:49,2420,42.8014,5.9826,13.2992,4.59921,2453.537,38.4868
2024-01-28T00:54:49,2420,42.8014,5.9826,13.2990,4.59920,2453.537,38.4870
2024-01-28T00:57:49,2420,42.8014,5.9826,13.3001,4.59914,2453.537,38.4853
2024-01-28T01:00:49,2420,42.8014,5.9826,13.2988,4.59918,2453.537,38.4870
2024-01-28T01:03:49,2420,42.8014,5.9826,13.2998,4.59916,2453.499,38.4858
2024-01-28T01:06:49,2420,42.8014,5.9826,13.3004,4.59929,2453.514,38.4865
2024-01-28T01:09:49,2420,42.8014,5.9826,13.2996,4.59914,2453.514,38.4858
2024-01-28T01:12:49,2420,42.8014,5.9826,13.2993,4.59914,2453.537,38.4861
2024-01-28T01:15:49,2420,42.8014,5.9826,13.2988,4.59919,2453.514,38.4871
2024-01-28T01:18:49,2420,42.8014,5.9826,13.3006,4.59916,2453.491,38.4850
2024-01-28T01:21:50,2420,42.8014,5.9826,13.3007,4.59923,2453.514,38.4856
2024-01-28T01:24:49,2420,42.8014,5.9826,13.2997,4.59917,2453.491,38.4860
2024-01-28T01:27:49,2420,42.8014,5.9826,13.2991,4.59922,2453.491,38.4870
2024-01-28T01:30:49,2420,42.8014,5.9826,13.3016,4.59926,2453.514,38.4849
2024-01-28T01:33:49,2420,42.8014,5.9826,13.2993,4.59922,2453.491,38.4869
2024-01-28T01:36:49,2420,42.8014,5.9826,13.2992,4.59920,2453.491,38.4868
2024-01-28T01:39:49,2420,42.8014,5.9826,13.2991,4.59919,2453.537,38.4867
2024-01-28T01:42:49,2420,42.8014,5.9826,13.2994,4.59917,2453.491,38.4863
2024-01-28T01:45:49,2420,42.8014,5.9826,13.2995,4.59940,2453.491,38.4884
2024-01-28T01:48:49,2420,42.8014,5.9826,13.3003,4.59918,2453.514,38.4855
2024-01-28T01:51:49,2420,42.8014,5.9826,13.2995,4.59924,2453.514,38.4868
2024-01-28T01:54:49,2420,42.8014,5.9826,13.2990,4.59980,2453.537,38.4926
2024-01-28T01:57:49,2420,42.8014,5.9826,13.2990,4.59929,2453.528,38.4878
2024-01-28T02:00:49,2420,42.8014,5.9826,13.2988,4.59960,2453.514,38.4910
2024-01-28T02:03:49,2420,42.8014,5.9826,13.2989,4.59923,2453.514,38.4874
2024-01-28T02:06:49,2420,42.8014,5.9826,13.2994,4.59951,2453.491,38.4895
2024-01-28T02:09:49,2420,42.8014,5.9826,13.2991,4.59971,2453.514,38.4917
2024-01-28T02:12:49,2420,42.8014,5.9826,13.2991,4.59926,2453.491,38.4874
2024-01-28T02:15:49,2420,42.8014,5.9826,13.2991,4.59951,2453.514,38.4898
2024-01-28T02:18:49,2420,42.8014,5.9826,13.2994,4.59953,2453.491,38.4897
2024-01-28T02:21:49,2420,42.8014,5.9826,13.3006,4.59939,2453.514,38.4872
2024-01-28T02:24:49,2420,42.8014,5.9826,13.2995,4.59923,2453.469,38.4868
2024-01-28T02:27:49,2420,42.8014,5.9826,13.2992,4.59926,2453.514,38.4873
2024-01-28T02:30:50,2420,42.8014,5.9826,13.2996,4.59967,2453.491,38.4908
2024-01-28T02:33:49,2420,42.8014,5.9826,13.3003,4.59922,2453.477,38.4859
2024-01-28T02:36:49,2420,42.8014,5.9826,13.2997,4.59943,2453.514,38.4885
2024-01-28T02:39:49,2420,42.8014,5.9826,13.2993,4.59962,2453.491,38.4906
2024-01-28T02:42:49,2420,42.8014,5.9826,13.2991,4.59930,2453.514,38.4878
2024-01-28T02:45:49,2420,42.8014,5.9826,13.2991,4.59919,2453.491,38.4868
2024-01-28T02:48:49,2420,42.8014,5.9826,13.2992,4.59921,2453.514,38.4868
2024-01-28T02:51:49,2420,42.8014,5.9826,13.2998,4.59971,2453.528,38.4909
2024-01-28T02:54:49,2420,42.8014,5.9826,13.2993,4.59934,2453.514,38.4880
2024-01-28T02:57:49,2420,42.8014,5.9826,13.3001,4.59977,2453.514,38.4912
2024-01-28T03:00:49,2420,42.8014,5.9826,13.3006,4.60011,2453.528,38.4939
2024-01-28T03:03:49,2420,42.8014,5.9826,13.3004,4.60008,2453.491,38.4939
2024-01-28T03:06:49,2420,42.8014,5.9826,13.3025,4.60013,2453.491,38.4923
2024-01-28T03:09:49,2420,42.8014,5.9826,13.3010,4.59974,2453.461,38.4902
2024-01-28T03:12:49,2420,42.8014,5.9826,13.3018,4.59968,2453.446,38.4888
2024-01-28T03:15:49,2420,42.8014,5.9826,13.3046,4.60006,2453.446,38.4895
2024-01-28T03:18:49,2420,42.8014,5.9826,13.2997,4.59986,2453.514,38.4925
2024-01-28T03:21:49,2420,42.8014,5.9826,13.3012,4.60006,2453.537,38.4928
2024-01-28T03:24:49,2420,42.8014,5.9826,13.3015,4.60044,2453.559,38.4962
2024-01-28T03:27:49,2420,42.8014,5.9826,13.3086,4.60040,2453.491,38.4888
2024-01-28T03:30:49,2420,42.8014,5.9826,13.3081,4.59999,2453.491,38.4854
2024-01-28T03:33:49,2420,42.8014,5.9826,13.3023,4.60064,2453.537,38.4972
2024-01-28T03:36:49,2420,42.8014,5.9826,13.3048,4.60071,2453.537,38.4955
2024-01-28T03:39:49,2420,42.8014,5.9826,13.3466,4.60015,2453.551,38.4487
2024-01-28T03:42:49,2420,42.8014,5.9826,13.3071,4.60054,2453.514,38.4916
2024-01-28T03:45:49,2420,42.8014,5.9826,13.3083,4.60011,2453.537,38.4863
2024-01-28T03:48:49,2420,42.8014,5.9826,13.3063,4.60067,2453.574,38.4936
2024-01-28T03:51:49,2420,42.8014,5.9826,13.3102,4.60058,2453.537,38.4889
2024-01-28T03:54:49,2420,42.8014,5.9826,13.3114,4.60016,2453.514,38.4837
2024-01-28T03:57:49,2420,42.8014,5.9826,13.3130,4.60044,2453.506,38.4848
2024-01-28T04:00:49,2420,42.8014,5.9826,13.3012,4.60077,2453.514,38.4996
2024-01-28T04:03:49,2420,42.8014,5.9826,13.3486,4.60042,2453.514,38.4493
2024-01-28T04:06:49,2420,42.8014,5.9826,13.3207,4.60052,2453.574,38.4778
2024-01-28T04:09:49,2420,42.8014,5.9826,13.3176,4.60112,2453.537,38.4866
2024-01-28T04:12:49,2420,42.8014,5.9826,13.3039,4.60041,2453.551,38.4935
2024-01-28T04:15:49,2420,42.8014,5.9826,13.3261,4.60020,2453.537,38.4695
2024-01-28T04:18:49,2420,42.8014,5.9826,13.3223,4.60056,2453.559,38.4766
2024-01-28T04:21:49,2420,42.8014,5.9826,13.3245,4.60057,2453.551,38.4746
2024-01-28T04:24:49,2420,42.8014,5.9826,13.3259,4.60019,2453.574,38.4696
2024-01-28T04:27:49,2420,42.8014,5.9826,13.3395,4.60016,2453.551,38.4558
2024-01-28T04:30:49,2420,42.8014,5.9826,13.3324,4.60024,2453.537,38.4636
2024-01-28T04:33:49,2420,42.8014,5.9826,13.3439,4.59999,2453.537,38.4498
2024-01-28T04:36:49,2420,42.8014,5.9826,13.3342,4.60025,2453.514,38.4619
2024-01-28T04:39:49,2420,42.8014,5.9826,13.3412,4.60065,2453.537,38.4588
2024-01-28T04:42:49,2420,42.8014,5.9826,13.3336,4.60053,2453.559,38.4652
2024-01-28T04:45:49,2420,42.8014,5.9826,13.3253,4.60028,2453.574,38.4711
2024-01-28T04:48:49,2420,42.8014,5.9826,13.3067,4.60052,2453.574,38.4918
2024-01-28T04:51:49,2420,42.8014,5.9826,13.3122,4.60052,2453.574,38.4863
2024-01-28T04:54:49,2420,42.8014,5.9826,13.3315,4.60022,2453.596,38.4643
2024-01-28T04:57:49,2420,42.8014,5.9826,13.3218,4.60026,2453.537,38.4743
2024-01-28T05:00:49,2420,42.8014,5.9826,13.3513,4.60037,2453.596,38.4461
2024-01-28T05:03:49,2420,42.8014,5.9826,13.3261,4.60021,2453.574,38.4695
2024-01-28T05:06:49,2420,42.8014,5.9826,13.3614,4.60036,2453.574,38.4361
2024-01-28T05:09:49,2420,42.8014,5.9826,13.3221,4.60037,2453.596,38.4751
2024-01-28T05:12:49,2420,42.8014,5.9826,13.3165,4.60034,2453.596,38.4803
2024-01-28T05:15:49,2420,42.8014,5.9826,13.3390,4.60027,2453.619,38.4574
2024-01-28T05:18:49,2420,42.8014,5.9826,13.3230,4.60055,2453.596,38.4759
2024-01-28T05:21:49,2420,42.8014,5.9826,13.3261,4.60011,2453.551,38.4687
2024-01-28T05:24:49,2420,42.8014,5.9826,13.3178,4.60035,2453.596,38.4791
2024-01-28T05:27:49,2420,42.8014,5.9826,13.3859,4.60038,2453.582,38.4120
2024-01-28T05:30:49,2420,42.8014,5.9826,13.3252,4.60039,2453.582,38.4721
2024-01-28T05:33:49,2420,42.8014,5.9826,13.3034,4.60121,2453.596,38.5015
2024-01-28T05:36:49,2420,42.8014,5.9826,13.3015,4.60190,2453.574,38.5100
2024-01-28T05:39:49,2420,42.8014,5.9826,13.3070,4.60148,2453.641,38.5005
2024-01-28T05:42:49,2420,42.8014,5.9826,13.3069,4.60134,2453.627,38.4992
2024-01-28T05:45:49,2420,42.8014,5.9826,13.3007,4.60125,2453.619,38.5046
2024-01-28T05:48:49,2420,42.8014,5.9826,13.3092,4.60209,2453.596,38.5040
2024-01-28T05:51:50,2420,42.8014,5.9826,13.3041,4.60068,2453.619,38.4959
2024-01-28T05:54:49,2420,42.8014,5.9826,13.3057,4.60206,2453.664,38.5073
2024-01-28T05:57:49,2420,42.8014,5.9826,13.3167,4.60090,2453.604,38.4855
2024-01-28T06:00:49,2420,42.8014,5.9826,13.3160,4.60292,2453.619,38.5051
2024-01-28T06:03:49,2420,42.8014,5.9826,13.3034,4.60041,2453.627,38.4940
2024-01-28T06:06:49,2420,42.8014,5.9826,13.3041,4.60184,2453.664,38.5067
2024-01-28T06:09:49,2420,42.8014,5.9826,13.3076,4.60159,2453.687,38.5010
2024-01-28T06:12:49,2420,42.8014,5.9826,13.3400,4.60104,2453.641,38.4636
2024-01-28T06:15:49,2420,42.8014,5.9826,13.3027,4.60120,2453.672,38.5021
2024-01-28T06:18:49,2420,42.8014,5.9826,13.3027,4.60075,2453.672,38.4978
2024-01-28T06:21:49,2420,42.8014,5.9826,13.3067,4.60093,2453.649,38.4957
2024-01-28T06:24:49,2420,42.8014,5.9826,13.3305,4.60093,2453.701,38.4720
2024-01-28T06:27:49,2420,42.8014,5.9826,13.3044,4.60210,2453.672,38.5090
2024-01-28T06:30:49,2420,42.8014,5.9826,13.3111,4.60096,2453.664,38.4915
2024-01-28T06:33:49,2420,42.8014,5.9826,13.3076,4.60153,2453.695,38.5003
2024-01-28T06:36:49,2420,42.8014,5.9826,13.3046,4.60098,2453.672,38.4982
2024-01-28T06:39:49,2420,42.8014,5.9826,13.3056,4.60065,2453.709,38.4940
2024-01-28T06:42:49,2420,42.8014,5.9826,13.3073,4.60028,2453.672,38.4889
2024-01-28T06:45:49,2420,42.8014,5.9826,13.3024,4.60024,2453.695,38.4933
2024-01-28T06:48:49,2420,42.8014,5.9826,13.3052,4.60030,2453.672,38.4911
2024-01-28T06:51:49,2420,42.8014,5.9826,13.3013,4.60057,2453.680,38.4975
2024-01-28T06:54:49,2420,42.8014,5.9826,13.3001,4.60039,2453.717,38.4970
2024-01-28T06:57:49,2420,42.8014,5.9826,13.3033,4.60075,2453.717,38.4972
2024-01-28T07:00:49,2420,42.8014,5.9826,13.3015,4.60026,2453.695,38.4944
2024-01-28T07:03:49,2420,42.8014,5.9826,13.3026,4.59987,2453.695,38.4896
2024-01-28T07:06:49,2420,42.8014,5.9826,13.3005,4.60023,2453.695,38.4951
2024-01-28T07:09:49,2420,42.8014,5.9826,13.2996,4.59982,2453.695,38.4922
2024-01-28T07:12:49,2420,42.8014,5.9826,13.2994,4.59981,2453.717,38.4922
2024-01-28T07:15:49,2420,42.8014,5.9826,13.2991,4.59963,2453.717,38.4909
2024-01-28T07:18:49,2420,42.8014,5.9826,13.3006,4.59962,2453.717,38.4892
2024-01-28T07:21:49,2420,42.8014,5.9826,13.2993,4.59970,2453.717,38.4913
2024-01-28T07:24:50,2420,42.8014,5.9826,13.2992,4.59951,2453.717,38.4896
2024-01-28T07:27:49,2420,42.8014,5.9826,13.2993,4.59949,2453.725,38.4893
2024-01-28T07:30:49,2420,42.8014,5.9826,13.2988,4.59949,2453.725,38.4898
2024-01-28T07:33:49,2420,42.8014,5.9826,13.2990,4.59944,2453.717,38.4891
2024-01-28T07:36:49,2420,42.8014,5.9826,13.2988,4.59939,2453.740,38.4889
2024-01-28T07:39:49,2420,42.8014,5.9826,13.2989,4.59935,2453.762,38.4884
2024-01-28T07:42:49,2420,42.8014,5.9826,13.2992,4.59940,2453.740,38.4885
2024-01-28T07:45:49,2420,42.8014,5.9826,13.2991,4.59948,2453.740,38.4895
2024-01-28T07:48:49,2420,42.8014,5.9826,13.2988,4.59931,2453.717,38.4881
2024-01-28T07:51:49,2420,42.8014,5.9826,13.2988,4.59935,2453.754,38.4885
2024-01-28T07:54:49,2420,42.8014,5.9826,13.2990,4.59931,2453.740,38.4880
2024-01-28T07:57:49,2420,42.8014,5.9826,13.2991,4.59934,2453.740,38.4881
2024-01-28T08:00:49,2420,42.8014,5.9826,13.2993,4.59944,2453.762,38.4888
2024-01-28T08:03:49,2420,42.8014,5.9826,13.2991,4.59941,2453.762,38.4887
2024-01-28T08:06:49,2420,42.8014,5.9826,13.2988,4.59936,2453.740,38.4886
2024-01-28T08:09:49,2420,42.8014,5.9826,13.2995,4.59937,2453.785,38.4879
2024-01-28T08:12:49,2420,42.8014,5.9826,13.2992,4.59931,2453.777,38.4877
2024-01-28T08:15:49,2420,42.8014,5.9826,13.2991,4.59938,2453.762,38.4884
2024-01-28T08:18:49,2420,42.8014,5.9826,13.2991,4.59928,2453.717,38.4876
2024-01-28T08:21:50,2420,42.8014,5.9826,13.2991,4.59930,2453.762,38.4877
2024-01-28T08:24:49,2420,42.8014,5.9826,13.2993,4.59928,2453.762,38.4873
2024-01-28T08:27:49,2420,42.8014,5.9826,13.2986,4.59923,2453.785,38.4875
2024-01-28T08:30:49,2420,42.8014,5.9826,13.2990,4.59925,2453.770,38.4873
2024-01-28T08:33:49,2420,42.8014,5.9826,13.2991,4.59934,2453.762,38.4881
2024-01-28T08:36:49,2420,42.8014,5.9826,13.2992,4.59927,2453.762,38.4873
2024-01-28T08:39:49,2420,42.8014,5.9826,13.2991,4.59926,2453.762,38.4874
2024-01-28T08:42:49,2420,42.8014,5.9826,13.2990,4.59925,2453.762,38.4873
2024-01-28T08:45:49,2420,42.8014,5.9826,13.2990,4.59925,2453.807,38.4873
2024-01-28T08:48:49,2420,42.8014,5.9826,13.2992,4.59931,2453.785,38.4877
2024-01-28T08:51:49,2420,42.8014,5.9826,13.2991,4.59928,2453.800,38.4875
2024-01-28T08:54:49,2420,42.8014,5.9826,13.2994,4.59926,2453.762,38.4870
2024-01-28T08:57:49,2420,42.8014,5.9826,13.2991,4.59928,2453.762,38.4875
2024-01-28T09:00:49,2420,42.8014,5.9826,13.2989,4.59931,2453.785,38.4880
2024-01-28T09:03:49,2420,42.8014,5.9826,13.2991,4.59925,2453.785,38.4872
2024-01-28T09:06:49,2420,42.8014,5.9826,13.2994,4.59928,2453.762,38.4873
2024-01-28T09:09:49,2420,42.8014,5.9826,13.2989,4.59928,2453.785,38.4877
2024-01-28T09:12:49,2420,42.8014,5.9826,13.2992,4.59928,2453.785,38.4874
2024-01-28T09:15:49,2420,42.8014,5.9826,13.2990,4.59942,2453.762,38.4889
2024-01-28T09:18:49,2420,42.8014,5.9826,13.2989,4.59936,2453.785,38.4884
2024-01-28T09:21:49,2420,42.8014,5.9826,13.2995,4.59928,2453.807,38.4871
2024-01-28T09:24:49,2420,42.8014,5.9826,13.2989,4.59934,2453.785,38.4883
2024-01-28T09:27:49,2420,42.8014,5.9826,13.2990,4.59927,2453.748,38.4875
2024-01-28T09:30:50,2420,42.8014,5.9826,13.2991,4.59937,2453.785,38.4884
2024-01-28T09:33:49,2420,42.8014,5.9826,13.2993,4.59929,2453.785,38.4874
2024-01-28T09:36:49,2420,42.8014,5.9826,13.2988,4.59935,2453.762,38.4885
2024-01-28T09:39:49,2420,42.8014,5.9826,13.2992,4.59944,2453.785,38.4889
2024-01-28T09:42:49,2420,42.8014,5.9826,13.2991,4.59930,2453.800,38.4877
2024-01-28T09:45:49,2420,42.8014,5.9826,13.2994,4.59931,2453.830,38.4875
2024-01-28T09:48:49,2420,42.8014,5.9826,13.2990,4.59931,2453.807,38.4879
2024-01-28T09:51:49,2420,42.8014,5.9826,13.2993,4.59937,2453.785,38.4881
2024-01-28T09:54:49,2420,42.8014,5.9826,13.2991,4.59929,2453.785,38.4877
2024-01-28T09:57:50,2420,42.8014,5.9826,13.2993,4.59934,2453.785,38.4878
2024-01-28T10:00:49,2420,42.8014,5.9826,13.2989,4.59935,2453.807,38.4884
2024-01-28T10:03:49,2420,42.8014,5.9826,13.2991,4.59939,2453.785,38.4885
2024-01-28T10:06:49,2420,42.8014,5.9826,13.2993,4.59941,2453.785,38.4886
2024-01-28T10:09:49,2420,42.8014,5.9826,13.2994,4.59939,2453.785,38.4882
2024-01-28T10:12:49,2420,42.8014,5.9826,13.2991,4.59941,2453.807,38.4888
2024-01-28T10:15:49,2420,42.8014,5.9826,13.2997,4.59931,2453.807,38.4872
2024-01-28T10:18:49,2420,42.8014,5.9826,13.3002,4.59962,2453.785,38.4896
2024-01-28T10:21:49,2420,42.8014,5.9826,13.2999,4.59960,2453.762,38.4898
2024-01-28T10:24:49,2420,42.8014,5.9826,13.3008,4.59963,2453.785,38.4892
2024-01-28T10:27:49,2420,42.8014,5.9826,13.2995,4.59937,2453.822,38.4880
2024-01-28T10:30:49,2420,42.8014,5.9826,13.3002,4.59950,2453.785,38.4885
2024-01-28T10:33:49,2420,42.8014,5.9826,13.3040,4.59973,2453.785,38.4869
2024-01-28T10:36:49,2420,42.8014,5.9826,13.3033,4.59957,2453.770,38.4861
2024-01-28T10:39:49,2420,42.8014,5.9826,13.3009,4.59947,2453.777,38.4876
2024-01-28T10:42:49,2420,42.8014,5.9826,13.3007,4.59939,2453.762,38.4870
2024-01-28T10:45:49,2420,42.8014,5.9826,13.3035,4.59957,2453.785,38.4859
2024-01-28T10:48:49,2420,42.8014,5.9826,13.2997,4.59947,2453.762,38.4887
2024-01-28T10:51:49,2420,42.8014,5.9826,13.3002,4.59956,2453.740,38.4891
2024-01-28T10:54:49,2420,42.8014,5.9826,13.3004,4.59962,2453.800,38.4894
2024-01-28T10:57:49,2420,42.8014,5.9826,13.3021,4.59960,2453.785,38.4876
2024-01-28T11:00:49,2420,42.8014,5.9826,13.3026,4.59979,2453.725,38.4889
2024-01-28T11:03:49,2420,42.8014,5.9826,13.3058,4.60007,2453.740,38.4884
2024-01-28T11:06:49,2420,42.8014,5.9826,13.3011,4.59983,2453.762,38.4907
2024-01-28T11:09:49,2420,42.8014,5.9826,13.3053,4.59974,2453.762,38.4858
2024-01-28T11:12:49,2420,42.8014,5.9826,13.3020,4.59943,2453.762,38.4861
2024-01-28T11:15:49,2420,42.8014,5.9826,13.2991,4.59940,2453.740,38.4887
2024-01-28T11:18:49,2420,42.8014,5.9826,13.2991,4.59942,2453.740,38.4888
2024-01-28T11:21:49,2420,42.8014,5.9826,13.3035,4.59957,2453.717,38.4858
2024-01-28T11:24:49,2420,42.8014,5.9826,13.2996,4.59939,2453.748,38.4881
2024-01-28T11:27:49,2420,42.8014,5.9826,13.3015,4.59950,2453.717,38.4873
2024-01-28T11:30:49,2420,42.8014,5.9826,13.3015,4.59994,2453.740,38.4913
2024-01-28T11:33:49,2420,42.8014,5.9826,13.3000,4.59976,2453.680,38.4912
2024-01-28T11:36:49,2420,42.8014,5.9826,13.3010,4.59951,2453.717,38.4878
2024-01-28T11:39:49,2420,42.8014,5.9826,13.3002,4.59996,2453.717,38.4929
2024-01-28T11:42:49,2420,42.8014,5.9826,13.3009,4.59985,2453.717,38.4912
2024-01-28T11:45:49,2420,42.8014,5.9826,13.3040,4.60021,2453.732,38.4914
2024-01-28T11:48:49,2420,42.8014,5.9826,13.2998,4.59978,2453.717,38.4915
2024-01-28T11:51:49,2420,42.8014,5.9826,13.3022,4.60008,2453.717,38.4920
2024-01-28T11:54:49,2420,42.8014,5.9826,13.3022,4.59994,2453.740,38.4907
2024-01-28T11:57:49,2420,42.8014,5.9826,13.3063,4.60005,2453.717,38.4876
2024-01-28T12:00:49,2420,42.8014,5.9826,13.3025,4.60001,2453.717,38.4911
2024-01-28T12:03:49,2420,42.8014,5.9826,13.3062,4.60037,2453.709,38.4908
2024-01-28T12:06:49,2420,42.8014,5.9826,13.2998,4.59985,2453.672,38.4923
2024-01-28T12:09:49,2420,42.8014,5.9826,13.3001,4.60019,2453.695,38.4951
2024-01-28T12:12:49,2420,42.8014,5.9826,13.3004,4.60001,2453.695,38.4932
2024-01-28T12:15:49,2420,42.8014,5.9826,13.3009,4.59991,2453.695,38.4917
2024-01-28T12:18:49,2420,42.8014,5.9826,13.3056,4.59980,2453.680,38.4861
2024-01-28T12:21:49,2420,42.8014,5.9826,13.3029,4.59974,2453.672,38.4882
2024-01-28T12:24:49,2420,42.8014,5.9826,13.3025,4.59986,2453.687,38.4897
2024-01-28T12:27:49,2420,42.8014,5.9826,13.3063,4.59988,2453.717,38.4860
2024-01-28T12:30:49,2420,42.8014,5.9826,13.3033,4.60018,2453.709,38.4919
2024-01-28T12:33:49,2420,42.8014,5.9826,13.3086,4.60051,2453.672,38.4898
2024-01-28T12:36:49,2420,42.8014,5.9826,13.3049,4.60050,2453.672,38.4933
2024-01-28T12:39:49,2420,42.8014,5.9826,13.3051,4.60045,2453.649,38.4927
2024-01-28T12:42:49,2420,42.8014,5.9826,13.3025,4.60206,2453.695,38.5104
2024-01-28T12:45:49,2420,42.8014,5.9826,13.3080,4.60023,2453.695,38.4877
2024-01-28T12:48:49,2420,42.8014,5.9826,13.3018,4.59987,2453.687,38.4904
2024-01-28T12:51:49,2420,42.8014,5.9826,13.3088,4.60011,2453.687,38.4858
2024-01-28T12:54:49,2420,42.8014,5.9826,13.3080,4.60074,2453.649,38.4925
2024-01-28T12:57:49,2420,42.8014,5.9826,13.3105,4.60008,2453.649,38.4837
2024-01-28T13:00:49,2420,42.8014,5.9826,13.3023,4.59979,2453.649,38.4891
2024-01-28T13:03:49,2420,42.8014,5.9826,13.3050,4.59999,2453.627,38.4885
2024-01-28T13:06:49,2420,42.8014,5.9826,13.3026,4.59972,2453.672,38.4883
2024-01-28T13:09:49,2420,42.8014,5.9826,13.3057,4.60033,2453.649,38.4909
2024-01-28T13:12:49,2420,42.8014,5.9826,13.3034,4.59999,2453.672,38.4900
2024-01-28T13:15:49,2420,42.8014,5.9826,13.3026,4.60005,2453.649,38.4913
2024-01-28T13:18:49,2420,42.8014,5.9826,13.3106,4.60011,2453.649,38.4840
2024-01-28T13:21:49,2420,42.8014,5.9826,13.3084,4.60025,2453.649,38.4875
2024-01-28T13:24:50,2420,42.8014,5.9826,13.3034,4.60040,2453.627,38.4939
2024-01-28T13:27:49,2420,42.8014,5.9826,13.3082,4.60071,2453.635,38.4921
2024-01-28T13:30:49,2420,42.8014,5.9826,13.3081,4.60019,2453.641,38.4872
2024-01-28T13:33:49,2420,42.8014,5.9826,13.3016,4.60027,2453.649,38.4944
2024-01-28T13:36:49,2420,42.8014,5.9826,13.3030,4.60044,2453.649,38.4946
2024-01-28T13:39:49,2420,42.8014,5.9826,13.3003,4.59994,2453.627,38.4926
2024-01-28T13:42:49,2420,42.8014,5.9826,13.3038,4.60024,2453.649,38.4919
2024-01-28T13:45:49,2420,42.8014,5.9826,13.3062,4.60104,2453.627,38.4971
2024-01-28T13:48:49,2420,42.8014,5.9826,13.2997,4.60090,2453.627,38.5023
2024-01-28T13:51:49,2420,42.8014,5.9826,13.3053,4.60117,2453.627,38.4993
2024-01-28T13:54:49,2420,42.8014,5.9826,13.3136,4.60090,2453.627,38.4885
2024-01-28T13:57:49,2420,42.8014,5.9826,13.3135,4.60073,2453.590,38.4870
2024-01-28T14:00:49,2420,42.8014,5.9826,13.3086,4.60226,2453.627,38.5062
2024-01-28T14:03:49,2420,42.8014,5.9826,13.3038,4.60095,2453.627,38.4987
2024-01-28T14:06:49,2420,42.8014,5.9826,13.3061,4.60049,2453.627,38.4920
2024-01-28T14:09:49,2420,42.8014,5.9826,13.3010,4.60131,2453.604,38.5049
2024-01-28T14:12:49,2420,42.8014,5.9826,13.3040,4.59997,2453.604,38.4892
2024-01-28T14:15:49,2420,42.8014,5.9826,13.3030,4.59983,2453.627,38.4889
2024-01-28T14:18:49,2420,42.8014,5.9826,13.3015,4.60034,2453.604,38.4953
2024-01-28T14:21:49,2420,42.8014,5.9826,13.3016,4.59997,2453.627,38.4917
2024-01-28T14:24:49,2420,42.8014,5.9826,13.3027,4.59971,2453.604,38.4880
2024-01-28T14:27:49,2420,42.8014,5.9826,13.3039,4.60039,2453.627,38.4934
2024-01-28T14:30:49,2420,42.8014,5.9826,13.3091,4.59999,2453.627,38.4844
2024-01-28T14:33:49,2420,42.8014,5.9826,13.3029,4.60019,2453.604,38.4924
2024-01-28T14:36:49,2420,42.8014,5.9826,13.3000,4.59988,2453.582,38.4923
2024-01-28T14:39:49,2420,42.8014,5.9826,13.3002,4.59997,2453.627,38.4930
2024-01-28T14:42:49,2420,42.8014,5.9826,13.3031,4.60019,2453.604,38.4922
2024-01-28T14:45:49,2420,42.8014,5.9826,13.3013,4.60245,2453.604,38.5153
2024-01-28T14:48:49,2420,42.8014,5.9826,13.3056,4.60074,2453.604,38.4949
2024-01-28T14:51:49,2420,42.8014,5.9826,13.3031,4.60048,2453.604,38.4949
2024-01-28T14:54:49,2420,42.8014,5.9826,13.3056,4.60034,2453.567,38.4912
2024-01-28T14:57:49,2420,42.8014,5.9826,13.3018,4.60028,2453.604,38.4943
2024-01-28T15:00:49,2420,42.8014,5.9826,13.3045,4.60008,2453.604,38.4897
2024-01-28T15:03:49,2420,42.8014,5.9826,13.3038,4.60002,2453.604,38.4900
2024-01-28T15:06:49,2420,42.8014,5.9826,13.3051,4.60057,2453.604,38.4938
2024-01-28T15:09:49,2420,42.8014,5.9826,13.3004,4.60016,2453.619,38.4946
2024-01-28T15:12:49,2420,42.8014,5.9826,13.3015,4.59963,2453.582,38.4886
2024-01-28T15:15:49,2420,42.8014,5.9826,13.3025,4.59990,2453.582,38.4901
2024-01-28T15:18:49,2420,42.8014,5.9826,13.3009,4.59962,2453.582,38.4890
2024-01-28T15:21:49,2420,42.8014,5.9826,13.3058,4.59990,2453.582,38.4869
2024-01-28T15:24:49,2420,42.8014,5.9826,13.3051,4.60005,2453.604,38.4888
2024-01-28T15:27:49,2420,42.8014,5.9826,13.3024,4.60004,2453.604,38.4915
2024-01-28T15:30:49,2420,42.8014,5.9826,13.3003,4.59983,2453.582,38.4916
2024-01-28T15:33:49,2420,42.8014,5.9826,13.3049,4.59999,2453.590,38.4885
2024-01-28T15:36:49,2420,42.8014,5.9826,13.3041,4.60047,2453.582,38.4938
2024-01-28T15:39:49,2420,42.8014,5.9826,13.3031,4.60009,2453.596,38.4912
2024-01-28T15:42:49,2420,42.8014,5.9826,13.3022,4.60027,2453.627,38.4938
2024-01-28T15:45:49,2420,42.8014,5.9826,13.3068,4.60155,2453.582,38.5013
2024-01-28T15:48:50,2420,42.8014,5.9826,13.3041,4.60088,2453.559,38.4977
2024-01-28T15:51:49,2420,42.8014,5.9826,13.3023,4.59990,2453.559,38.4902
2024-01-28T15:54:49,2420,42.8014,5.9826,13.3062,4.60013,2453.567,38.4885
2024-01-28T15:57:49,2420,42.8014,5.9826,13.3033,4.59966,2453.596,38.4871
2024-01-28T16:00:49,2420,42.8014,5.9826,13.3018,4.59974,2453.582,38.4892
2024-01-28T16:03:49,2420,42.8014,5.9826,13.3049,4.60005,2453.559,38.4891